"Pseudo-MPEC" for P11J7Hk
Created 2023 Sep 26 12:22:15 UT using Find_Orb
Click here for an explanation of pseudo-MPECs
Astrometry: P11J7Hk* C2023 09 11vbh/-SsDN1;Vme7prvAUkGe%@p0iFd@.SOo,Hn5Y/EOd@s]q:laW
F51 P11J7Hk C2023 09 11B\(RKNqk6Jt+0BSyUbx_?cYlFP,lmH#5^+A/38UI)/'Lb[K%tjhT
F51 P11J7Hk C2023 09 11\h*B4QD7@(wl0.!4K*CR0_2F07@TYNj!3gide[+HX!:B/o0Zy-fd
F51 P11J7Hk C2023 09 11my0WjP2$YVYlwIV=*;eY^LNI`'V'kIZ!'$,m(e#bW!ego)]eE#Kj
F51 P11J7Hk KC2023 09 11Lfq)m=RM3Q$Z4i^P9;h1dKnOJ0RvTYb%b/Bn\;\g?!c+c9F+$dVr
474 P11J7Hk KC2023 09 11m'\FW6Ys
AstrometrypA(8iSK+Mha6BlS6m9:WogKPIK-:*Z0%bH
474 P11J7Hk KC2023 09 11nVtf]bMs^stf?iDiVI
redacted;?Yt'sXa)]$,Q^KJygQLK,TkLC
474 P11J7Hk 2C2023 09 13i;S84gfo`DWD'5*3sF^
clickxyOK,TW`]^iRk(AXn6smGqt\!-0!
K91 P11J7Hk 2C2023 09 13F.L7%2l6Llt0
here5qG4@8-3_X-BYo,Z;:4AQ9SwPYC$jY*FP,4p
K91 P11J7Hk 2C2023 09 13Dv))Tk%4`1HU%]vWv)Tbx*,Wi,aOAXs=aVKR6_l!bG'Ew^AZlCD,
K91 P11J7Hk C2023 09 16)!O6=$1uw(6.SCDm5EU74duo1wlU^u13eNlPIiX_Qf(uYruh/!BC
F51 P11J7Hk C2023 09 16@=l+o^`-Z
forKtyyfP0baNx7apfOYAq#;ioF8TaEh2?Af,qBZ^Wb
F51 P11J7Hk C2023 09 16]nJ-4Sg
explanationVKDq:9RGYQikp11V\TLp8*YOR]]g6$CaH:
F51 Station data: (474) Mount John Observatory, Lake Tekapo (S43.987385 E170.464960) New Zealand. Observers A. C. Gilmore, P. M. Kilmartin. Measurer P. M. Kilmartin. 1.0-m f/7.7 reflector + CCD. (F51) Pan-STARRS 1, Haleakala (N20.707234 W156.255910) US/Hawaii. Observers J. Bulger, T. Lowe, A. Schultz, M. Willman. Measurers K. Chambers, S. Chastel, T. de Boer, L. Denneau, J. Fairlamb, H. Flewelling, M. Huber, C.-C. Lin, E. Magnier, Y. Ramanjooloo, R. Wainscoat, R. Weryk. 1.8-m Ritchey-Chrétien + CCD. (K91) Sutherland-LCO A (S32.380540 E20.810190) South Africa. Observer J. D. Armstrong. Measurer T. Lister. 1.0-m f/8 Ritchey-Chrétien + CCD. Orbital elements: P11J7Hk Perihelion 2024 Sep 20.19740 +/- 82.6 TT = 4:44:15 (JD 2460573.69740) Epoch 2023 Sep 13.0 TT = JDT 2460200.5 Ju: 0.2594 AutoNEOCP M 344.38190305 +/- 5.2 (J2000 ecliptic) n 0.04184942 +/- 0.00604 Peri. 23.63328 +/- 10 a 8.21630175 +/- 0.79 Node 306.83483 +/- 0.47 e 0.4269175 +/- 0.0429 Incl. 97.15407 +/- 1.2 P 23.55 H 14.01 G 0.15 U 9.4 q 4.70861797 +/- 0.229 Q 11.7239855 +/- 1.44 From 13 observations 2023 Sept. 11-16; mean residual 0".38
Residuals in arcseconds: 230911 F51 .05- .03- 230911 474 .26+ 1.1- 230916 F51 .19- .00 230911 F51 .12- .05+ 230911 474 .04+ .71- 230916 F51 .22+ .06- 230911 F51 .19+ .14+ 230913 K91 .40- .15+ 230916 F51 .02- .06+ 230911 F51 .06- .16+ 230913 K91 .32- .71- 230911 474 .02+ .02+ 230913 K91 .61+ .70+ Ephemerides (geocentric): Date (UTC) HH RA Dec delta r elong mag " sig PA ---- -------- ------------ ------------ ------ ------ ----- --- -------- 2023 09 26 12 20 18 18.773 -37 36 56.01 4.5617 5.0540 114.1 21.5 10.2 37 2023 09 26 13 20 18 17.026 -37 36 34.99 4.5622 5.0539 114.0 21.5 10.3 37 2023 09 26 14 20 18 15.281 -37 36 13.97 4.5628 5.0538 114.0 21.5 10.4 37 2023 09 26 15 20 18 13.539 -37 35 52.95 4.5633 5.0537 113.9 21.5 10.5 37 2023 09 26 16 20 18 11.799 -37 35 31.91 4.5638 5.0537 113.9 21.5 10.5 38 2023 09 26 17 20 18 10.062 -37 35 10.88 4.5644 5.0536 113.8 21.5 10.6 38 2023 09 26 18 20 18 08.327 -37 34 49.84 4.5649 5.0535 113.8 21.5 10.7 38 2023 09 26 19 20 18 06.594 -37 34 28.79 4.5655 5.0534 113.8 21.5 10.7 38 2023 09 26 20 20 18 04.863 -37 34 07.75 4.5660 5.0534 113.7 21.5 10.8 38 2023 09 26 21 20 18 03.135 -37 33 46.69 4.5666 5.0533 113.7 21.5 10.9 38 2023 09 26 22 20 18 01.409 -37 33 25.64 4.5671 5.0532 113.6 21.5 11.0 38 2023 09 26 23 20 17 59.686 -37 33 04.58 4.5677 5.0531 113.6 21.5 11.0 38 2023 09 27 00 20 17 57.964 -37 32 43.51 4.5682 5.0531 113.6 21.5 11.1 38 2023 09 27 01 20 17 56.246 -37 32 22.44 4.5688 5.0530 113.5 21.5 11.2 38 2023 09 27 02 20 17 54.529 -37 32 01.37 4.5693 5.0529 113.5 21.5 11.3 38 2023 09 27 03 20 17 52.815 -37 31 40.29 4.5698 5.0528 113.4 21.5 11.3 38 2023 09 27 04 20 17 51.103 -37 31 19.21 4.5704 5.0528 113.4 21.5 11.4 38 2023 09 27 05 20 17 49.393 -37 30 58.12 4.5709 5.0527 113.3 21.5 11.5 38 2023 09 27 06 20 17 47.686 -37 30 37.03 4.5715 5.0526 113.3 21.5 11.6 38 2023 09 27 07 20 17 45.981 -37 30 15.94 4.5720 5.0525 113.3 21.5 11.6 38 2023 09 27 08 20 17 44.278 -37 29 54.84 4.5726 5.0525 113.2 21.5 11.7 38 2023 09 27 09 20 17 42.577 -37 29 33.74 4.5731 5.0524 113.2 21.5 11.8 38 2023 09 27 10 20 17 40.879 -37 29 12.63 4.5737 5.0523 113.1 21.5 11.9 38 2023 09 27 11 20 17 39.184 -37 28 51.52 4.5742 5.0522 113.1 21.5 11.9 38 2023 09 27 12 20 17 37.490 -37 28 30.41 4.5748 5.0522 113.0 21.5 12.0 38 2023 09 27 13 20 17 35.799 -37 28 09.29 4.5753 5.0521 113.0 21.5 12.1 38 2023 09 27 14 20 17 34.110 -37 27 48.17 4.5759 5.0520 113.0 21.5 12.2 38 2023 09 27 15 20 17 32.424 -37 27 27.04 4.5764 5.0519 112.9 21.5 12.2 38 2023 09 27 16 20 17 30.739 -37 27 05.91 4.5770 5.0519 112.9 21.5 12.3 38 2023 09 27 17 20 17 29.057 -37 26 44.78 4.5775 5.0518 112.8 21.5 12.4 38 2023 09 27 18 20 17 27.378 -37 26 23.64 4.5781 5.0517 112.8 21.5 12.5 38 2023 09 27 19 20 17 25.701 -37 26 02.49 4.5786 5.0516 112.8 21.5 12.5 38 2023 09 27 20 20 17 24.026 -37 25 41.35 4.5792 5.0516 112.7 21.5 12.6 38 2023 09 27 21 20 17 22.353 -37 25 20.20 4.5797 5.0515 112.7 21.5 12.7 38 2023 09 27 22 20 17 20.683 -37 24 59.04 4.5803 5.0514 112.6 21.5 12.8 38 2023 09 27 23 20 17 19.014 -37 24 37.89 4.5808 5.0513 112.6 21.5 12.9 38 2023 09 28 00 20 17 17.349 -37 24 16.72 4.5814 5.0513 112.5 21.5 12.9 38 2023 09 28 01 20 17 15.685 -37 23 55.56 4.5819 5.0512 112.5 21.5 13.0 38 2023 09 28 02 20 17 14.024 -37 23 34.39 4.5825 5.0511 112.5 21.5 13.1 38 2023 09 28 03 20 17 12.365 -37 23 13.22 4.5830 5.0510 112.4 21.5 13.2 38 2023 09 28 04 20 17 10.709 -37 22 52.04 4.5836 5.0510 112.4 21.5 13.2 38 2023 09 28 05 20 17 09.055 -37 22 30.86 4.5842 5.0509 112.3 21.5 13.3 38 2023 09 28 06 20 17 07.403 -37 22 09.67 4.5847 5.0508 112.3 21.5 13.4 39 2023 09 28 07 20 17 05.753 -37 21 48.49 4.5853 5.0507 112.3 21.5 13.5 39 2023 09 28 08 20 17 04.106 -37 21 27.29 4.5858 5.0507 112.2 21.5 13.6 39 2023 09 28 09 20 17 02.461 -37 21 06.10 4.5864 5.0506 112.2 21.5 13.7 39 2023 09 28 10 20 17 00.818 -37 20 44.90 4.5869 5.0505 112.1 21.5 13.7 39 2023 09 28 11 20 16 59.178 -37 20 23.69 4.5875 5.0504 112.1 21.5 13.8 39